Prague, Czech Republic

9:56 PM CEST on August 25, 2016 (GMT +0200)
Ruzyne

Weather History for LKPR - October, 2010

Change the Weather History Date:

Saturday, October 9, 2010

  Actual Average Record
Temperature  
Mean Temperature 48 °F -  
Max Temperature 58 °F 52 °F 71 °F (1997)
Min Temperature 38 °F 37 °F 35 °F (2012)
Degree Days  
Heating Degree Days 17    
Moisture  
Dew Point 40 °F    
Average Humidity 78    
Maximum Humidity 100    
Minimum Humidity 51    
Precipitation  
Precipitation 0.00 in 0.04 in - ()
Sea Level Pressure  
Sea Level Pressure 30.22 in    
Wind  
Wind Speed 7 mph ()    
Max Wind Speed 13 mph    
Max Gust Speed -    
Visibility 6.4 miles    
Events      
Averages and records for this station are not official NWS values.
T = Trace of Precipitation, MM = Missing Value Source: Averaged Metar Reports

Daily Weather History Graph

Daily Weather History Graph

Search for Another Location

Airport or City:

Trip Planner

Search our weather history database for the weather conditions in past years. The results will help you decide how hot, cold, wet, or windy it might be!

Date:

Astronomy

Oct. 09, 2010 Rise Set
Actual Time 7:15 AM CEST 6:24 PM CEST
Civil Twilight 6:42 AM CEST 6:57 PM CEST
Nautical Twilight 6:05 AM CEST 7:34 PM CEST
Astronomical Twilight 5:27 AM CEST 8:12 PM CEST
Moon 9:35 AM CEST (10/9) 6:44 PM CEST (10/9)
Length of Visible Light 12h 14m
Length of Day
11h 09m
Waxing Crescent, 4% of the Moon is Illuminated
Oct 9
Waxing Crescent
Oct 14
First Quarter
Oct 23
Full
Oct 30
Last Quarter
Nov 6
New

Hourly Weather History & Observations

Time (CEST) Temp. Windchill Dew Point Humidity Pressure Visibility Wind Dir Wind Speed Gust Speed Precip Events Conditions
12:00 AM 42.8 °F 39.3 °F 41.0 °F 93% 30.27 in - East 5.8 mph - N/A   Clear
12:30 AM 42.8 °F 39.3 °F 41.0 °F 93% 30.30 in - East 5.8 mph - N/A   Clear
1:00 AM 41.0 °F 35.2 °F 39.2 °F 93% 30.27 in - East 9.2 mph - N/A   Clear
1:30 AM 41.0 °F 35.2 °F 39.2 °F 93% 30.27 in - East 9.2 mph - N/A   Clear
2:00 AM 42 °F - 40 °F 90% 30.33 in 12 mi East 8.9 mph - -   Clear
2:00 AM 41.0 °F 35.2 °F 39.2 °F 93% 30.27 in - East 9.2 mph - N/A   Clear
2:30 AM 42.8 °F 38.0 °F 41.0 °F 93% 30.27 in - East 8.1 mph - N/A   Clear
3:00 AM 41.0 °F 35.2 °F 39.2 °F 93% 30.27 in - East 9.2 mph - N/A   Clear
3:30 AM 42.8 °F 37.5 °F 41.0 °F 93% 30.27 in - East 9.2 mph - N/A   Clear
4:00 AM 41.0 °F 35.8 °F 39.2 °F 93% 30.27 in - East 8.1 mph - N/A   Clear
4:30 AM 41.0 °F 36.4 °F 39.2 °F 93% 30.27 in 5.6 mi East 6.9 mph - N/A   Unknown
5:00 AM 41.0 °F 36.4 °F 39.2 °F 93% 30.27 in 5.6 mi ENE 6.9 mph - N/A   Unknown
5:30 AM 41.0 °F 36.4 °F 39.2 °F 93% 30.27 in 5.0 mi ENE 6.9 mph - N/A   Unknown
6:00 AM 41.0 °F 36.4 °F 39.2 °F 93% 30.27 in 5.0 mi ENE 6.9 mph - N/A   Unknown
6:30 AM 39.2 °F 34.2 °F 37.4 °F 93% 30.27 in 4.3 mi East 6.9 mph - N/A   Unknown
7:00 AM 41.0 °F 36.4 °F 39.2 °F 93% 30.27 in 3.1 mi ENE 6.9 mph - N/A   Mist
7:30 AM 39.2 °F 34.2 °F 39.2 °F 100% 30.27 in 2.8 mi ENE 6.9 mph - N/A   Mist
8:00 AM 40 °F - 39 °F 94% 30.32 in 3 mi East 4.5 mph - -   Mist
8:00 AM 41.0 °F 35.8 °F 39.2 °F 93% 30.27 in 3.1 mi ENE 8.1 mph - N/A   Mist
8:30 AM 42.8 °F 38.6 °F 41.0 °F 93% 30.27 in 3.1 mi East 6.9 mph - N/A   Mist
9:00 AM 42.8 °F 39.3 °F 41.0 °F 93% 30.27 in 3.7 mi East 5.8 mph - N/A   Unknown
9:30 AM 44.6 °F 40.2 °F 42.8 °F 93% 30.27 in 5.0 mi East 8.1 mph - N/A   Unknown
10:00 AM 46.4 °F 42.4 °F 42.8 °F 87% 30.27 in - East 8.1 mph - N/A   Clear
10:30 AM 46.4 °F 42.4 °F 41.0 °F 81% 30.27 in - East 8.1 mph - N/A   Clear
11:00 AM 50.0 °F - 41.0 °F 71% 30.27 in - East 4.6 mph - N/A   Clear
11:30 AM 51.8 °F - 41.0 °F 67% 30.27 in - ENE 5.8 mph - N/A   Clear
12:00 PM 51.8 °F - 41.0 °F 67% 30.24 in - East 5.8 mph - N/A   Clear
12:30 PM 53.6 °F - 41.0 °F 62% 30.24 in - East 6.9 mph - N/A   Clear
1:00 PM 55.4 °F - 42.8 °F 63% 30.24 in - ENE 6.9 mph - N/A   Clear
1:30 PM 57.2 °F - 42.8 °F 59% 30.21 in - East 8.1 mph - N/A   Clear
2:00 PM 57 °F - 44 °F 51% 30.22 in 16 mi ENE 6.7 mph - -   Clear
2:00 PM 57.2 °F - 44.6 °F 63% 30.21 in - East 9.2 mph - N/A   Clear
2:30 PM 57.2 °F - 44.6 °F 63% 30.21 in - East 9.2 mph - N/A   Clear
3:00 PM 59.0 °F - 42.8 °F 55% 30.18 in - East 9.2 mph - N/A   Clear
3:30 PM 59.0 °F - 42.8 °F 55% 30.18 in - East 10.4 mph - N/A   Clear
4:00 PM 59.0 °F - 42.8 °F 55% 30.18 in - East 10.4 mph - N/A   Clear
4:30 PM 57.2 °F - 41.0 °F 55% 30.15 in - East 12.7 mph - N/A   Clear
5:00 PM 59.0 °F - 41.0 °F 51% 30.15 in - East 12.7 mph - N/A   Clear
5:30 PM 57.2 °F - 41.0 °F 55% 30.15 in - East 12.7 mph - N/A   Clear
6:00 PM 53.6 °F - 41.0 °F 62% 30.15 in - East 12.7 mph - N/A   Clear
6:30 PM 50.0 °F - 41.0 °F 71% 30.15 in - East 9.2 mph - N/A   Clear
7:00 PM 50.0 °F - 39.2 °F 66% 30.15 in - East 5.8 mph - N/A   Clear
7:30 PM 50.0 °F - 39.2 °F 66% 30.15 in - East 6.9 mph - N/A   Clear
8:00 PM 46 °F - 39 °F 67% 30.18 in 19 mi East 8.9 mph - -   Scattered Clouds
8:00 PM 46.4 °F 41.1 °F 39.2 °F 76% 30.15 in - East 11.5 mph - N/A   Clear
8:30 PM 48.2 °F - 35.6 °F 62% 30.15 in - East 9.2 mph - N/A   Clear
9:00 PM 42.8 °F 37.5 °F 35.6 °F 76% 30.15 in - East 9.2 mph - N/A   Clear
9:30 PM 42.8 °F 37.0 °F 35.6 °F 76% 30.15 in - East 10.4 mph - N/A   Clear
10:00 PM 44.6 °F 38.8 °F 37.4 °F 76% 30.15 in - East 11.5 mph - N/A   Clear
10:30 PM 42.8 °F 36.6 °F 37.4 °F 81% 30.15 in - East 11.5 mph - N/A   Clear
11:00 PM 44.6 °F 38.4 °F 37.4 °F 76% 30.12 in - East 12.7 mph - N/A   Clear
11:30 PM 42.8 °F 36.6 °F 37.4 °F 81% 30.12 in - East 11.5 mph - N/A   Clear